Snowfall_Accumulation
0.0 0.0 0.0 0.0 0.0 0.0 0.0 0.0 0.0 0.0 0.0 0.0 0.0 0.0 0.0 0.0 0.0 0.0 0.0 0.0 0.0 0.0
0.0 0.0 0.0 0.0 0.0 0.0 0.0 0.0 0.0 0.0 0.0 0.0 0.0 0.0 0.0 0.0 0.0 0.0 0.0 0.0 0.0 0.0
0.0 0.0 0.0 0.0 0.0 0.0 0.0 0.0 0.0 0.0 0.0 0.0 0.0 0.0 0.0 0.0 0.0 0.0 0.0 0.0 0.0 0.0
0.0 0.0 0.0 0.0 0.0 0.0 0.0 0.0 0.0 0.0 0.0 0.0 0.0 0.0 0.0 0.0 0.0 0.0 0.0 0.0 0.0 0.0
0.0 0.0 0.0 0.0 0.0 0.0 0.0 0.0 0.0 0.0 0.0 0.0 0.0 0.0 0.0 0.0 0.0 0.0 0.0 0.0 0.0 0.0
0.0 0.0 0.0 0.0 0.0 0.0 0.0 0.0 0.0 0.0 0.0 0.0 0.1 0.0 0.0 0.0 0.0 0.0 0.0 0.0 0.0 0.1
0.4 0.2 0.0 0.0 0.0 0.0 0.0 0.0 0.2 0.2 0.0 0.0 0.0 1.5 1.5 0.6 0.2 0.0 0.0 0.5 0.5 0.5
0.0 1.3 1.0 1.8 0.0 0.0 0.0 1.0 1.0 1.4 1.6 1.1 0.6 1.7 1.9 0.0 0.5 0.1 0.1 0.0 0.0 0.0
1.8 1.7 1.4 1.7 0.8 0.8 1.1 0.8 1.0 1.7 1.4 0.3 0.5 1.7 2.2 1.5 0.1 3.0 4.3 4.8 4.7 4.4
1.6 1.9 1.5 1.4 1.2 1.1 1.3 1.1 0.9 1.4 1.6 0.6 4.1 1.9 1.8 6.0 6.5 6.9 5.7 5.3 5.0 6.3
1.2 1.0 0.9 0.9 0.9 0.6 1.0 1.3 3.0 2.9 3.2 4.3 2.9 2.9 3.8 5.6 3.9 4.1 4.0 3.4 4.7 4.1
1.1 2.1 1.4 0.7 1.8 1.5 1.4 2.1 1.6 1.4 2.6 2.3 1.7 0.7 1.8 2.9 4.1 4.9 1.8 1.6 2.3 3.4
3.4 3.8 3.4 3.0 3.0 3.2 1.8 1.3 1.3 1.4 1.7 1.7 0.8 0.7 0.6 2.3 4.2 6.4 4.9 3.9 1.4 3.1
5.2 4.7 4.1 3.6 2.7 2.0 2.1 1.7 1.9 1.7 2.1 1.0 0.5 0.3 0.6 1.4 3.7 8.2 8.9 6.7 3.2 2.4